TimeCST,TemperatureF,Dew PointF,Humidity,Sea Level PressureIn,VisibilityMPH,Wind Direction,Wind SpeedMPH,Gust SpeedMPH,PrecipitationIn,Events,Conditions,WindDirDegrees,DateUTC
12:00 AM,68,68,100,30.06,7,Calm,Calm,,,,Haze,,2012-11-20 06:00:00
12:00 AM,68.0,68.0,100,30.04,6.2,Calm,Calm,-,N/A,,Mostly Cloudy,0,2012-11-20 06:00:00
3:00 AM,69,68,95,30.02,7,South,2.3,,,,Haze,170,2012-11-20 09:00:00
3:00 AM,69.8,68.0,94,30.01,6.2,South,2.3,-,N/A,,Mostly Cloudy,170,2012-11-20 09:00:00
5:00 AM,69.8,68.0,94,30.04,6.2,South,2.3,-,N/A,,Mostly Cloudy,190,2012-11-20 11:00:00
6:00 AM,69,68,96,30.04,7,Calm,Calm,,,,Haze,,2012-11-20 12:00:00
6:00 AM,68.0,68.0,100,30.04,6.2,Calm,Calm,-,N/A,,Mostly Cloudy,0,2012-11-20 12:00:00
7:00 AM,69.8,68.0,94,30.06,6.2,Calm,Calm,-,N/A,,Mostly Cloudy,0,2012-11-20 13:00:00
8:00 AM,71.6,68.0,88,30.09,6.2,SW,3.5,-,N/A,,Mostly Cloudy,220,2012-11-20 14:00:00
9:00 AM,74,68,76,30.09,6,Calm,Calm,,,,Haze,,2012-11-20 15:00:00
9:00 AM,73.4,68.0,83,30.09,6.2,Calm,Calm,-,N/A,,Mostly Cloudy,0,2012-11-20 15:00:00
10:00 AM,77.0,68.0,74,30.09,6.2,East,3.5,-,N/A,,Mostly Cloudy,80,2012-11-20 16:00:00
11:00 AM,77.0,69.8,78,30.06,6.2,NNE,3.5,-,N/A,,Mostly Cloudy,30,2012-11-20 17:00:00
12:00 PM,80,68,58,30.06,6,ENE,3.5,,,,Haze,60,2012-11-20 18:00:00
12:00 PM,80.6,68.0,65,30.06,6.2,ENE,3.5,-,N/A,,Mostly Cloudy,60,2012-11-20 18:00:00
1:00 PM,80.6,68.0,65,30.01,6.2,NE,4.6,-,N/A,,Mostly Cloudy,40,2012-11-20 19:00:00
2:00 PM,78.8,68.0,69,30.01,6.2,NE,5.8,-,N/A,,Mostly Cloudy,40,2012-11-20 20:00:00
3:00 PM,78,67,62,29.99,6,ENE,3.5,,,,Haze,60,2012-11-20 21:00:00
3:00 PM,78.8,68.0,69,30.01,6.2,ENE,3.5,-,N/A,,Mostly Cloudy,60,2012-11-20 21:00:00
4:00 PM,78.8,69.8,74,29.98,6.2,ENE,3.5,-,N/A,,Mostly Cloudy,60,2012-11-20 22:00:00
5:00 PM,77.0,69.8,78,29.98,6.2,Calm,Calm,-,N/A,,Mostly Cloudy,0,2012-11-20 23:00:00
6:00 PM,77,69,70,30.01,6,Calm,Calm,,,,Haze,,2012-11-21 00:00:00
6:00 PM,77.0,71.6,83,30.01,6.2,Calm,Calm,-,N/A,,Mostly Cloudy,0,2012-11-21 00:00:00
7:00 PM,73.4,71.6,94,30.04,6.2,WSW,2.3,-,N/A,,Mostly Cloudy,250,2012-11-21 01:00:00
8:00 PM,73.4,71.6,94,30.06,6.2,SW,4.6,-,N/A,,Mostly Cloudy,220,2012-11-21 02:00:00
9:00 PM,73,71,92,30.07,6,Calm,Calm,,,,Haze,,2012-11-21 03:00:00
9:00 PM,73.4,71.6,94,30.06,6.2,Calm,Calm,-,N/A,,Mostly Cloudy,0,2012-11-21 03:00:00
10:00 PM,71.6,69.8,94,30.06,6.2,Calm,Calm,-,N/A,,Mostly Cloudy,0,2012-11-21 04:00:00